START_TIME,STEP,MOV.,M29,t_acc.,H22,t_acc.,H26,t_acc.,H30,t_acc.
1979-07-24 03:00:31.410 ,1,0,0.,24.0,0.,24.0,0.,24.0,0.,24.0
1979-07-24 03:00:55.410 ,2,1,0.,24.0,0.,24.0,0.,24.0,0.,24.0
1979-07-24 03:01:19.410 ,2,0,0.,24.0,0.,24.0,0.,24.0,0.,24.0
1979-07-24 03:01:43.410 ,3,1,0.,24.0,0.,24.0,0.,24.0,0.,24.0
1979-07-24 03:02:07.410 ,3,0,0.,24.0,0.,24.0,0.,24.0,0.,24.0
1979-07-24 03:02:31.410 ,4,1,0.,24.0,0.,24.0,0.,24.0,0.,24.0
1979-07-24 03:02:55.410 ,4,0,0.,24.0,0.,24.0,0.,24.0,0.,24.0
1979-07-24 03:03:19.410 ,5,1,0.,24.0,0.,24.0,0.,24.0,0.,24.0
1979-07-24 03:03:43.410 ,5,0,0.,24.0,0.,24.0,0.,24.0,0.,24.0
1979-07-24 03:04:07.410 ,6,1,0.,24.0,0.,24.0,0.,24.0,0.,24.0
1979-07-24 03:04:31.410 ,6,0,0.,24.0,0.,24.0,0.,24.0,0.,24.0
1979-07-24 03:04:55.410 ,7,1,0.,24.0,0.,24.0,0.,24.0,0.,24.0
1979-07-24 03:05:19.410 ,7,0,0.,24.0,0.,24.0,0.,24.0,0.,24.0
1979-07-24 03:05:43.410 ,7,1,1.,24.0,0.,24.0,0.,24.0,0.,24.0
1979-07-24 03:06:07.410 ,7,0,0.,24.0,0.,24.0,0.,24.0,0.,24.0
1979-07-24 03:06:31.410 ,6,1,0.,24.0,0.,24.0,0.,24.0,0.,24.0
1979-07-24 03:06:55.410 ,6,0,0.,24.0,0.,24.0,0.,24.0,0.,24.0
1979-07-24 03:07:19.410 ,5,1,0.,24.0,0.,24.0,0.,24.0,0.,24.0
1979-07-24 03:07:43.410 ,5,0,0.,24.0,0.,24.0,0.,24.0,0.,24.0
1979-07-24 03:08:07.410 ,4,1,0.,24.0,0.,24.0,0.,24.0,0.,24.0
1979-07-24 03:08:31.410 ,4,0,0.,24.0,0.,24.0,0.,24.0,0.,24.0
1979-07-24 03:08:55.410 ,3,1,0.,24.0,0.,24.0,0.,24.0,0.,24.0
1979-07-24 03:09:19.410 ,3,0,0.,24.0,0.,24.0,0.,24.0,0.,24.0
1979-07-24 03:09:43.410 ,2,1,0.,24.0,0.,24.0,0.,24.0,0.,24.0
1979-07-24 03:10:07.410 ,2,0,0.,24.0,0.,24.0,0.,24.0,0.,24.0
1979-07-24 03:10:31.410 ,1,1,0.,24.0,0.,24.0,0.,24.0,0.,24.0
1979-07-24 03:10:55.410 ,1,0,0.,24.0,0.,24.0,0.,24.0,0.,24.0
1979-07-24 03:11:19.410 ,0,1,0.,24.0,0.,24.0,0.,24.0,0.,24.0
1979-07-24 03:11:43.410 ,0,0,0.,24.0,0.,24.0,0.,24.0,0.,24.0
1979-07-24 03:12:07.410 ,0,1,0.,24.0,0.,24.0,0.,24.0,0.,24.0
1979-07-24 03:12:31.410 ,0,0,0.,24.0,0.,24.0,0.,24.0,0.,24.0
1979-07-24 03:12:55.410 ,1,1,0.,24.0,0.,24.0,0.,24.0,0.,24.0
1979-07-24 03:13:19.410 ,1,0,0.,24.0,0.,24.0,0.,24.0,0.,24.0
1979-07-24 03:13:43.410 ,2,1,0.,24.0,0.,24.0,0.,24.0,0.,24.0
1979-07-24 03:14:07.410 ,2,0,0.,24.0,0.,24.0,0.,24.0,0.,24.0
1979-07-24 03:14:31.410 ,3,1,0.,24.0,0.,24.0,0.,24.0,0.,24.0
1979-07-24 03:14:55.410 ,3,0,0.,24.0,0.,24.0,0.,24.0,0.,24.0
1979-07-24 03:15:19.410 ,4,1,0.,24.0,0.,24.0,0.,24.0,0.,24.0
1979-07-24 03:15:43.410 ,4,0,0.,24.0,0.,24.0,0.,24.0,0.,24.0
1979-07-24 03:16:07.410 ,5,1,0.,24.0,0.,24.0,0.,24.0,0.,24.0
1979-07-24 03:16:31.410 ,5,0,0.,24.0,0.,24.0,0.,24.0,0.,24.0
1979-07-24 03:16:55.410 ,6,1,0.,24.0,0.,24.0,0.,24.0,0.,24.0
1979-07-24 03:17:19.410 ,6,0,0.,24.0,0.,24.0,0.,24.0,0.,24.0
1979-07-24 03:17:43.410 ,7,1,0.,24.0,0.,24.0,0.,24.0,0.,24.0
1979-07-24 03:18:07.410 ,7,0,0.,24.0,0.,24.0,0.,24.0,0.,24.0
1979-07-24 03:18:31.410 ,7,1,0.,24.0,0.,24.0,0.,24.0,0.,24.0
1979-07-24 03:18:55.410 ,7,0,0.,24.0,0.,24.0,0.,24.0,0.,24.0
1979-07-24 03:19:19.410 ,6,1,0.,24.0,0.,24.0,0.,24.0,0.,24.0
1979-07-24 03:19:43.410 ,6,0,0.,24.0,0.,24.0,0.,24.0,0.,24.0
1979-07-24 03:20:07.410 ,5,1,0.,24.0,0.,24.0,0.,24.0,0.,24.0
1979-07-24 03:20:31.410 ,5,0,0.,24.0,0.,24.0,0.,24.0,0.,24.0
1979-07-24 03:20:55.410 ,4,1,0.,24.0,0.,24.0,0.,24.0,0.,24.0
1979-07-24 03:21:19.410 ,4,0,0.,24.0,0.,24.0,0.,24.0,0.,24.0
1979-07-24 03:21:43.410 ,3,1,0.,24.0,0.,24.0,0.,24.0,0.,24.0
1979-07-24 03:22:07.410 ,3,0,0.,24.0,0.,24.0,0.,24.0,0.,24.0
1979-07-24 03:22:31.410 ,2,1,0.,24.0,0.,24.0,0.,24.0,0.,24.0
1979-07-24 03:22:55.410 ,2,0,0.,24.0,0.,24.0,0.,24.0,0.,24.0
1979-07-24 03:23:19.410 ,1,1,0.,24.0,0.,24.0,0.,24.0,0.,24.0
1979-07-24 03:23:43.410 ,1,0,0.,24.0,0.,24.0,0.,24.0,0.,24.0
1979-07-24 03:24:07.410 ,0,1,0.,24.0,0.,24.0,0.,24.0,0.,24.0
1979-07-24 03:24:31.410 ,0,0,0.,24.0,0.,24.0,0.,24.0,0.,24.0
1979-07-24 03:24:55.410 ,0,1,0.,24.0,0.,24.0,0.,24.0,0.,24.0
1979-07-24 03:25:19.410 ,0,0,0.,24.0,0.,24.0,0.,24.0,0.,24.0
1979-07-24 03:25:43.410 ,1,1,0.,24.0,0.,24.0,0.,24.0,0.,24.0
1979-07-24 03:26:07.410 ,1,0,0.,24.0,0.,24.0,0.,24.0,0.,24.0
1979-07-24 03:26:31.410 ,2,1,0.,24.0,0.,24.0,0.,24.0,0.,24.0
1979-07-24 03:26:55.410 ,2,0,0.,24.0,0.,24.0,0.,24.0,0.,24.0
1979-07-24 03:27:19.410 ,3,1,0.,24.0,0.,24.0,0.,24.0,0.,24.0
1979-07-24 03:27:43.410 ,3,0,0.,24.0,0.,24.0,0.,24.0,0.,24.0
1979-07-24 03:28:07.410 ,4,1,0.,24.0,0.,24.0,0.,24.0,0.,24.0
1979-07-24 03:28:31.410 ,4,0,0.,24.0,0.,24.0,0.,24.0,0.,24.0
1979-07-24 03:28:55.410 ,5,1,0.,24.0,0.,24.0,0.,24.0,0.,24.0
1979-07-24 03:29:19.410 ,5,0,0.,24.0,0.,24.0,0.,24.0,0.,24.0
1979-07-24 03:29:43.410 ,6,1,0.,24.0,0.,24.0,0.,24.0,0.,24.0
1979-07-24 03:30:07.410 ,6,0,0.,24.0,0.,24.0,0.,24.0,0.,24.0
1979-07-24 03:30:31.410 ,7,0,0.,24.0,0.,24.0,0.,24.0,0.,24.0
1979-07-24 03:30:55.410 ,7,0,0.,24.0,0.,24.0,0.,24.0,0.,24.0
1979-07-24 03:31:19.410 ,5,1,0.,24.0,0.,24.0,0.,24.0,0.,24.0
1979-07-24 03:31:43.410 ,1,1,0.,24.0,0.,24.0,0.,24.0,0.,24.0
1979-07-24 03:32:07.410 ,2,1,0.,24.0,0.,24.0,0.,24.0,0.,24.0
1979-07-24 03:32:31.410 ,6,1,0.,24.0,0.,24.0,0.,24.0,0.,24.0
1979-07-24 03:32:55.410 ,5,1,0.,24.0,0.,24.0,0.,24.0,0.,24.0
1979-07-24 03:33:19.410 ,1,1,0.,24.0,0.,24.0,0.,24.0,0.,24.0
1979-07-24 03:33:43.410 ,2,1,0.,24.0,0.,24.0,0.,24.0,0.,24.0
1979-07-24 03:34:07.410 ,6,1,0.,24.0,0.,24.0,0.,24.0,0.,24.0
1979-07-24 03:34:31.410 ,5,1,0.,24.0,0.,24.0,0.,24.0,0.,24.0
1979-07-24 03:34:55.410 ,1,1,0.,24.0,0.,24.0,0.,24.0,0.,24.0
1979-07-24 03:35:19.410 ,2,1,0.,24.0,0.,24.0,0.,24.0,0.,24.0
1979-07-24 03:35:43.410 ,6,1,0.,24.0,0.,24.0,0.,24.0,0.,24.0
1979-07-24 03:36:07.410 ,5,1,0.,24.0,0.,24.0,0.,24.0,0.,24.0
1979-07-24 03:36:31.410 ,1,1,0.,24.0,0.,24.0,0.,24.0,0.,24.0
1979-07-24 03:36:55.410 ,2,1,0.,24.0,0.,24.0,0.,24.0,0.,24.0
1979-07-24 03:37:19.410 ,6,1,0.,24.0,0.,24.0,0.,24.0,0.,24.0
1979-07-24 03:37:43.410 ,5,1,0.,24.0,0.,24.0,0.,24.0,0.,24.0
1979-07-24 03:38:07.410 ,1,1,0.,24.0,0.,24.0,0.,24.0,0.,24.0
1979-07-24 03:38:31.410 ,2,1,0.,24.0,0.,24.0,0.,24.0,0.,24.0
1979-07-24 03:38:55.410 ,6,1,0.,24.0,0.,24.0,0.,24.0,0.,24.0
1979-07-24 03:39:19.410 ,5,1,0.,24.0,0.,24.0,0.,24.0,0.,24.0
1979-07-24 03:39:43.410 ,1,1,0.,24.0,0.,24.0,0.,24.0,0.,24.0
1979-07-24 03:40:07.410 ,2,1,0.,24.0,0.,24.0,0.,24.0,0.,24.0
1979-07-24 03:40:31.410 ,6,1,0.,24.0,0.,24.0,0.,24.0,0.,24.0
1979-07-24 03:41:43.410 ,0,0,0.,24.0,0.,24.0,0.,24.0,0.,24.0
1979-07-24 03:42:07.410 ,0,0,16128.,24.0,2064384.,24.0,8960.,24.0,1179648.,24.0
1979-07-24 03:42:07.410 ,0,0,0.,24.0,0.,24.0,0.,24.0,0.,24.0
1979-07-24 03:42:31.410 ,5,1,0.,24.0,0.,24.0,0.,24.0,0.,24.0
1979-07-24 03:42:55.410 ,5,0,0.,24.0,0.,24.0,0.,24.0,0.,24.0
1979-07-24 03:43:19.410 ,4,1,0.,24.0,0.,24.0,0.,24.0,0.,24.0
1979-07-24 03:43:43.410 ,4,0,0.,24.0,0.,24.0,0.,24.0,0.,24.0
1979-07-24 03:44:07.410 ,3,1,0.,24.0,0.,24.0,0.,24.0,0.,24.0
1979-07-24 03:44:31.410 ,3,0,0.,24.0,0.,24.0,0.,24.0,0.,24.0
1979-07-24 03:44:55.410 ,2,1,0.,24.0,0.,24.0,0.,24.0,0.,24.0
1979-07-24 03:45:19.410 ,2,0,0.,24.0,0.,24.0,0.,24.0,0.,24.0
1979-07-24 03:45:43.410 ,1,1,0.,24.0,0.,24.0,0.,24.0,0.,24.0
1979-07-24 03:46:07.410 ,1,0,0.,24.0,0.,24.0,0.,24.0,0.,24.0
1979-07-24 03:46:31.410 ,0,1,0.,24.0,0.,24.0,0.,24.0,0.,24.0
1979-07-24 03:46:55.410 ,0,0,0.,24.0,0.,24.0,0.,24.0,0.,24.0
1979-07-24 03:47:19.410 ,0,1,0.,24.0,0.,24.0,0.,24.0,0.,24.0
1979-07-24 03:47:43.410 ,0,0,0.,24.0,0.,24.0,0.,24.0,0.,24.0
1979-07-24 03:48:07.410 ,1,1,0.,24.0,0.,24.0,0.,24.0,0.,24.0
1979-07-24 03:48:31.410 ,1,0,0.,24.0,0.,24.0,0.,24.0,0.,24.0
1979-07-24 03:48:55.410 ,2,1,0.,24.0,0.,24.0,0.,24.0,0.,24.0
1979-07-24 03:49:19.410 ,2,0,0.,24.0,0.,24.0,0.,24.0,0.,24.0
1979-07-24 03:49:43.400 ,3,1,0.,24.0,0.,24.0,0.,24.0,0.,24.0
1979-07-24 03:50:07.400 ,3,0,0.,24.0,0.,24.0,0.,24.0,0.,24.0
1979-07-24 03:50:31.400 ,4,1,0.,24.0,0.,24.0,0.,24.0,0.,24.0
1979-07-24 03:50:55.400 ,4,0,0.,24.0,0.,24.0,0.,24.0,0.,24.0
1979-07-24 03:51:19.400 ,5,1,0.,24.0,0.,24.0,0.,24.0,0.,24.0
1979-07-24 03:51:43.400 ,5,0,0.,24.0,0.,24.0,0.,24.0,0.,24.0
1979-07-24 03:52:07.400 ,6,1,0.,24.0,0.,24.0,0.,24.0,0.,24.0
1979-07-24 03:52:31.400 ,6,0,0.,24.0,0.,24.0,0.,24.0,0.,24.0
1979-07-24 03:52:55.400 ,7,1,0.,24.0,0.,24.0,0.,24.0,0.,24.0
1979-07-24 03:53:19.400 ,7,0,0.,24.0,0.,24.0,0.,24.0,0.,24.0
1979-07-24 03:53:43.400 ,7,1,0.,24.0,0.,24.0,0.,24.0,0.,24.0
1979-07-24 03:54:07.400 ,7,0,0.,24.0,0.,24.0,0.,24.0,0.,24.0
1979-07-24 03:54:31.400 ,6,1,0.,24.0,0.,24.0,0.,24.0,0.,24.0
1979-07-24 03:54:55.400 ,6,0,0.,24.0,0.,24.0,0.,24.0,0.,24.0
1979-07-24 03:55:43.400 ,5,0,0.,24.0,0.,24.0,0.,24.0,0.,24.0
1979-07-24 03:56:07.400 ,4,1,0.,24.0,0.,24.0,0.,24.0,0.,24.0
1979-07-24 03:56:31.400 ,4,0,0.,24.0,0.,24.0,0.,24.0,0.,24.0
1979-07-24 03:56:55.400 ,3,1,0.,24.0,0.,24.0,0.,24.0,0.,24.0
1979-07-24 03:57:19.400 ,3,0,0.,24.0,0.,24.0,0.,24.0,0.,24.0
1979-07-24 03:57:43.400 ,2,1,0.,24.0,0.,24.0,0.,24.0,0.,24.0
1979-07-24 03:58:07.400 ,2,0,0.,24.0,0.,24.0,0.,24.0,0.,24.0
1979-07-24 03:58:31.400 ,1,1,0.,24.0,0.,24.0,0.,24.0,0.,24.0
1979-07-24 03:58:55.400 ,1,0,0.,24.0,0.,24.0,0.,24.0,0.,24.0
1979-07-24 03:59:19.400 ,0,1,0.,24.0,0.,24.0,0.,24.0,0.,24.0
1979-07-24 03:59:43.400 ,0,0,0.,24.0,0.,24.0,0.,24.0,0.,24.0
1979-07-24 04:00:07.400 ,0,1,0.,24.0,0.,24.0,0.,24.0,0.,24.0
1979-07-24 04:00:31.410 ,0,0,0.,24.0,0.,24.0,0.,24.0,0.,24.0
1979-07-24 04:00:55.410 ,1,1,0.,24.0,0.,24.0,0.,24.0,0.,24.0
1979-07-24 04:01:19.400 ,1,0,0.,24.0,0.,24.0,0.,24.0,0.,24.0
1979-07-24 04:01:43.400 ,2,1,0.,24.0,0.,24.0,0.,24.0,0.,24.0
1979-07-24 04:02:07.400 ,2,0,0.,24.0,0.,24.0,0.,24.0,0.,24.0
1979-07-24 04:02:31.410 ,3,1,0.,24.0,0.,24.0,0.,24.0,0.,24.0
1979-07-24 04:02:55.410 ,3,0,0.,24.0,0.,24.0,0.,24.0,0.,24.0
1979-07-24 04:03:19.410 ,4,1,0.,24.0,0.,24.0,0.,24.0,0.,24.0
1979-07-24 04:03:43.410 ,4,0,0.,24.0,0.,24.0,0.,24.0,0.,24.0
1979-07-24 04:04:07.400 ,5,1,0.,24.0,0.,24.0,0.,24.0,0.,24.0
1979-07-24 04:04:31.400 ,5,0,0.,24.0,0.,24.0,0.,24.0,0.,24.0
1979-07-24 04:04:55.400 ,6,1,0.,24.0,0.,24.0,0.,24.0,0.,24.0
1979-07-24 04:05:19.400 ,6,0,0.,24.0,0.,24.0,0.,24.0,0.,24.0
1979-07-24 04:05:43.400 ,7,1,0.,24.0,0.,24.0,0.,24.0,0.,24.0
1979-07-24 04:06:07.400 ,7,0,0.,24.0,0.,24.0,0.,24.0,0.,24.0
1979-07-24 04:06:31.400 ,7,1,0.,24.0,0.,24.0,0.,24.0,0.,24.0
1979-07-24 04:06:55.400 ,7,0,0.,24.0,0.,24.0,0.,24.0,0.,24.0
1979-07-24 04:07:19.400 ,6,1,0.,24.0,0.,24.0,0.,24.0,0.,24.0
1979-07-24 04:07:43.400 ,6,0,0.,24.0,0.,24.0,0.,24.0,0.,24.0
1979-07-24 04:08:07.400 ,5,1,0.,24.0,0.,24.0,0.,24.0,0.,24.0
1979-07-24 04:08:31.400 ,5,0,0.,24.0,0.,24.0,0.,24.0,0.,24.0
1979-07-24 04:08:55.410 ,4,1,0.,24.0,0.,24.0,0.,24.0,0.,24.0
1979-07-24 04:09:19.410 ,4,0,0.,24.0,0.,24.0,0.,24.0,0.,24.0
1979-07-24 04:09:43.400 ,0,0,0.,24.0,0.,24.0,0.,24.0,0.,24.0
1979-07-24 04:10:07.400 ,0,0,0.,24.0,0.,24.0,0.,24.0,0.,24.0
1979-07-24 04:10:31.400 ,2,1,0.,24.0,0.,24.0,0.,24.0,0.,24.0
1979-07-24 04:10:55.400 ,2,0,0.,24.0,0.,24.0,0.,24.0,0.,24.0
1979-07-24 04:11:19.400 ,1,1,0.,24.0,0.,24.0,0.,24.0,0.,24.0
1979-07-24 04:11:43.400 ,1,0,0.,24.0,0.,24.0,0.,24.0,0.,24.0
1979-07-24 04:12:07.400 ,0,1,0.,24.0,0.,24.0,0.,24.0,0.,24.0
1979-07-24 04:12:31.400 ,0,0,0.,24.0,0.,24.0,0.,24.0,0.,24.0
1979-07-24 04:12:55.400 ,0,1,0.,24.0,0.,24.0,0.,24.0,0.,24.0
1979-07-24 04:13:19.400 ,0,0,0.,24.0,0.,24.0,0.,24.0,0.,24.0
1979-07-24 04:13:43.400 ,1,1,0.,24.0,0.,24.0,0.,24.0,0.,24.0
1979-07-24 04:14:07.400 ,1,0,0.,24.0,0.,24.0,0.,24.0,0.,24.0
1979-07-24 04:14:31.400 ,0,0,0.,24.0,0.,24.0,0.,24.0,0.,24.0
1979-07-24 04:14:55.400 ,0,0,,0,,0,,0,,0
1979-07-24 04:14:55.400 ,2,0,0.,24.0,0.,24.0,0.,24.0,0.,24.0
1979-07-24 04:15:19.400 ,3,1,0.,24.0,0.,24.0,0.,24.0,0.,24.0
1979-07-24 04:15:43.400 ,3,0,0.,24.0,0.,24.0,0.,24.0,0.,24.0
1979-07-24 04:16:07.400 ,4,1,0.,24.0,0.,24.0,0.,24.0,0.,24.0
1979-07-24 04:16:31.400 ,4,0,0.,24.0,0.,24.0,0.,24.0,0.,24.0
1979-07-24 04:16:55.400 ,5,1,0.,24.0,0.,24.0,0.,24.0,0.,24.0
1979-07-24 04:17:19.400 ,5,0,0.,24.0,0.,24.0,0.,24.0,0.,24.0
1979-07-24 04:17:43.400 ,6,1,0.,24.0,0.,24.0,0.,24.0,0.,24.0
1979-07-24 04:18:07.400 ,6,0,0.,24.0,0.,24.0,0.,24.0,0.,24.0
1979-07-24 04:18:31.400 ,7,0,0.,24.0,0.,24.0,0.,24.0,0.,24.0
1979-07-24 04:18:55.400 ,7,0,0.,24.0,0.,24.0,0.,24.0,0.,24.0
1979-07-24 04:19:19.400 ,5,1,0.,24.0,0.,24.0,0.,24.0,0.,24.0
1979-07-24 04:19:43.400 ,1,1,0.,24.0,0.,24.0,0.,24.0,0.,24.0
1979-07-24 04:20:07.400 ,2,1,0.,24.0,0.,24.0,0.,24.0,0.,24.0
1979-07-24 04:20:31.400 ,6,1,0.,24.0,0.,24.0,0.,24.0,0.,24.0
1979-07-24 04:20:55.400 ,5,1,0.,24.0,0.,24.0,0.,24.0,0.,24.0
1979-07-24 04:21:19.400 ,1,1,0.,24.0,0.,24.0,0.,24.0,0.,24.0
1979-07-24 04:21:43.400 ,2,1,0.,24.0,0.,24.0,0.,24.0,0.,24.0
1979-07-24 04:22:07.400 ,6,1,0.,24.0,0.,24.0,0.,24.0,0.,24.0
1979-07-24 04:22:31.400 ,5,1,0.,24.0,0.,24.0,0.,24.0,0.,24.0
1979-07-24 04:22:55.400 ,1,1,0.,24.0,0.,24.0,0.,24.0,0.,24.0
1979-07-24 04:23:19.400 ,2,1,0.,24.0,0.,24.0,0.,24.0,0.,24.0
1979-07-24 04:23:43.400 ,6,1,0.,24.0,0.,24.0,0.,24.0,0.,24.0
1979-07-24 04:24:07.400 ,5,1,0.,24.0,0.,24.0,0.,24.0,0.,24.0
1979-07-24 04:24:31.400 ,1,1,0.,24.0,0.,24.0,0.,24.0,0.,24.0
1979-07-24 04:24:55.400 ,2,1,1.,24.0,0.,24.0,0.,24.0,0.,24.0
1979-07-24 04:25:19.400 ,6,1,0.,24.0,0.,24.0,0.,24.0,0.,24.0
1979-07-24 04:25:43.400 ,5,1,0.,24.0,0.,24.0,0.,24.0,0.,24.0
1979-07-24 04:26:07.400 ,1,1,0.,24.0,0.,24.0,0.,24.0,0.,24.0
1979-07-24 04:26:31.400 ,2,1,0.,24.0,0.,24.0,0.,24.0,0.,24.0
1979-07-24 04:26:55.400 ,6,1,0.,24.0,0.,24.0,0.,24.0,0.,24.0
1979-07-24 04:27:19.400 ,5,1,0.,24.0,0.,24.0,0.,24.0,0.,24.0
1979-07-24 04:27:43.400 ,1,1,0.,24.0,0.,24.0,0.,24.0,0.,24.0
1979-07-24 04:28:55.400 ,0,0,0.,24.0,0.,24.0,0.,24.0,0.,24.0
1979-07-24 04:29:19.400 ,1,1,0.,24.0,0.,24.0,0.,24.0,0.,24.0
1979-07-24 04:30:31.400 ,0,0,0.,24.0,0.,24.0,0.,24.0,0.,24.0
1979-07-24 04:30:55.400 ,0,0,0.,24.0,0.,24.0,0.,24.0,0.,24.0
1979-07-24 04:31:19.400 ,4,1,0.,24.0,0.,24.0,0.,24.0,0.,24.0
1979-07-24 04:31:43.400 ,4,0,0.,24.0,0.,24.0,0.,24.0,0.,24.0
1979-07-24 04:32:07.400 ,3,1,0.,24.0,0.,24.0,0.,24.0,0.,24.0
1979-07-24 04:32:31.400 ,3,0,0.,24.0,0.,24.0,0.,24.0,0.,24.0
1979-07-24 04:32:55.400 ,2,1,0.,24.0,0.,24.0,0.,24.0,0.,24.0
1979-07-24 04:33:19.400 ,2,0,0.,24.0,0.,24.0,0.,24.0,0.,24.0
1979-07-24 04:33:43.400 ,1,1,0.,24.0,0.,24.0,0.,24.0,0.,24.0
1979-07-24 04:34:07.400 ,1,0,0.,24.0,0.,24.0,0.,24.0,0.,24.0
1979-07-24 04:34:31.400 ,0,1,0.,24.0,0.,24.0,0.,24.0,0.,24.0
1979-07-24 04:34:55.400 ,0,0,0.,24.0,0.,24.0,0.,24.0,0.,24.0
1979-07-24 04:35:19.400 ,0,1,0.,24.0,0.,24.0,0.,24.0,0.,24.0
1979-07-24 04:35:43.400 ,0,0,0.,24.0,0.,24.0,0.,24.0,0.,24.0
1979-07-24 04:36:07.400 ,1,1,0.,24.0,0.,24.0,0.,24.0,0.,24.0
1979-07-24 04:36:31.400 ,1,0,0.,24.0,0.,24.0,0.,24.0,0.,24.0
1979-07-24 04:36:55.400 ,2,1,0.,24.0,0.,24.0,0.,24.0,0.,24.0
1979-07-24 04:37:19.400 ,2,0,0.,24.0,0.,24.0,0.,24.0,0.,24.0
1979-07-24 04:37:43.400 ,3,1,0.,24.0,0.,24.0,0.,24.0,0.,24.0
1979-07-24 04:38:07.400 ,3,0,0.,24.0,0.,24.0,0.,24.0,0.,24.0
1979-07-24 04:38:31.400 ,4,1,0.,24.0,0.,24.0,0.,24.0,0.,24.0
1979-07-24 04:38:55.400 ,4,0,0.,24.0,0.,24.0,0.,24.0,0.,24.0
1979-07-24 04:39:19.400 ,5,1,0.,24.0,0.,24.0,0.,24.0,0.,24.0
1979-07-24 04:39:43.400 ,5,0,0.,24.0,0.,24.0,0.,24.0,0.,24.0
1979-07-24 04:40:07.400 ,6,1,0.,24.0,0.,24.0,0.,24.0,0.,24.0
1979-07-24 04:40:31.400 ,6,0,0.,24.0,0.,24.0,0.,24.0,0.,24.0
1979-07-24 04:40:55.400 ,7,1,0.,24.0,0.,24.0,0.,24.0,0.,24.0
1979-07-24 04:41:19.400 ,7,0,0.,24.0,0.,24.0,0.,24.0,0.,24.0
1979-07-24 04:41:43.400 ,7,1,0.,24.0,0.,24.0,0.,24.0,0.,24.0
1979-07-24 04:42:07.400 ,7,0,0.,24.0,0.,24.0,0.,24.0,0.,24.0
1979-07-24 04:42:31.400 ,6,1,0.,24.0,0.,24.0,0.,24.0,0.,24.0
1979-07-24 04:42:55.400 ,6,0,0.,24.0,0.,24.0,0.,24.0,0.,24.0
1979-07-24 04:43:19.400 ,5,1,0.,24.0,0.,24.0,0.,24.0,0.,24.0
1979-07-24 04:43:43.400 ,5,0,0.,24.0,0.,24.0,0.,24.0,0.,24.0
1979-07-24 04:44:07.400 ,4,1,0.,24.0,0.,24.0,0.,24.0,0.,24.0
1979-07-24 04:44:31.400 ,4,0,0.,24.0,0.,24.0,0.,24.0,0.,24.0
1979-07-24 04:44:55.400 ,3,1,0.,24.0,0.,24.0,0.,24.0,0.,24.0
1979-07-24 04:45:19.400 ,3,0,0.,24.0,0.,24.0,0.,24.0,0.,24.0
1979-07-24 04:45:43.400 ,2,1,0.,24.0,0.,24.0,0.,24.0,0.,24.0
1979-07-24 04:46:07.400 ,2,0,0.,24.0,0.,24.0,0.,24.0,0.,24.0
1979-07-24 04:46:31.400 ,1,1,0.,24.0,0.,24.0,0.,24.0,0.,24.0
1979-07-24 04:46:55.400 ,1,0,0.,24.0,0.,24.0,0.,24.0,0.,24.0
1979-07-24 04:47:19.400 ,0,1,0.,24.0,0.,24.0,0.,24.0,0.,24.0
1979-07-24 04:47:43.400 ,0,0,0.,24.0,0.,24.0,0.,24.0,0.,24.0
1979-07-24 04:48:07.400 ,0,1,0.,24.0,0.,24.0,0.,24.0,0.,24.0
1979-07-24 04:48:31.400 ,0,0,0.,24.0,0.,24.0,0.,24.0,0.,24.0
1979-07-24 04:48:55.400 ,1,1,0.,24.0,0.,24.0,0.,24.0,0.,24.0
1979-07-24 04:49:19.400 ,1,0,0.,24.0,0.,24.0,0.,24.0,0.,24.0
1979-07-24 04:49:43.400 ,2,1,0.,24.0,0.,24.0,0.,24.0,0.,24.0
1979-07-24 04:50:07.400 ,2,0,0.,24.0,0.,24.0,0.,24.0,0.,24.0
1979-07-24 04:50:31.400 ,3,1,0.,24.0,0.,24.0,0.,24.0,0.,24.0
1979-07-24 04:50:55.400 ,3,0,0.,24.0,0.,24.0,0.,24.0,0.,24.0
1979-07-24 04:51:19.400 ,4,1,0.,24.0,0.,24.0,0.,24.0,0.,24.0
1979-07-24 04:51:43.400 ,4,0,0.,24.0,0.,24.0,0.,24.0,0.,24.0
1979-07-24 04:52:07.400 ,5,1,0.,24.0,0.,24.0,0.,24.0,0.,24.0
1979-07-24 04:52:31.400 ,5,0,0.,24.0,0.,24.0,0.,24.0,0.,24.0
1979-07-24 04:52:55.400 ,6,1,0.,24.0,0.,24.0,0.,24.0,0.,24.0
1979-07-24 04:53:19.400 ,6,0,0.,24.0,0.,24.0,0.,24.0,0.,24.0
1979-07-24 04:53:43.400 ,7,1,0.,24.0,0.,24.0,0.,24.0,0.,24.0
1979-07-24 04:54:07.400 ,7,0,0.,24.0,0.,24.0,0.,24.0,0.,24.0
1979-07-24 04:54:31.400 ,7,1,0.,24.0,0.,24.0,0.,24.0,0.,24.0
1979-07-24 04:54:55.400 ,7,0,0.,24.0,0.,24.0,0.,24.0,0.,24.0
1979-07-24 04:55:19.400 ,6,1,0.,24.0,0.,24.0,0.,24.0,0.,24.0
1979-07-24 04:55:43.400 ,6,0,0.,24.0,0.,24.0,0.,24.0,0.,24.0
1979-07-24 04:56:07.400 ,5,1,0.,24.0,0.,24.0,0.,24.0,0.,24.0
1979-07-24 04:56:31.400 ,5,0,0.,24.0,0.,24.0,0.,24.0,0.,24.0
1979-07-24 04:56:55.400 ,4,1,0.,24.0,0.,24.0,0.,24.0,0.,24.0
1979-07-24 04:57:19.400 ,4,0,0.,24.0,0.,24.0,0.,24.0,0.,24.0
1979-07-24 04:57:43.400 ,3,1,0.,24.0,0.,24.0,0.,24.0,0.,24.0
1979-07-24 04:58:07.400 ,0,0,,0,,0,,0,,0
1979-07-24 04:59:11.600 ,0,0,,0,,0,,0,,0
1979-07-24 04:59:19.400 ,1,1,1.,24.0,0.,24.0,0.,24.0,0.,24.0
1979-07-24 04:59:43.400 ,1,0,0.,24.0,0.,24.0,0.,24.0,0.,24.0
1979-07-24 05:00:07.400 ,0,1,0.,24.0,0.,24.0,0.,24.0,0.,24.0
1979-07-24 05:00:31.400 ,0,0,0.,24.0,0.,24.0,0.,24.0,0.,24.0
1979-07-24 05:00:55.400 ,0,1,0.,24.0,0.,24.0,0.,24.0,0.,24.0
1979-07-24 05:01:19.400 ,0,0,0.,24.0,0.,24.0,0.,24.0,0.,24.0
1979-07-24 05:01:43.400 ,1,1,0.,24.0,0.,24.0,0.,24.0,0.,24.0
1979-07-24 05:02:07.400 ,1,0,0.,24.0,0.,24.0,0.,24.0,0.,24.0
1979-07-24 05:02:31.400 ,2,1,0.,24.0,0.,24.0,0.,24.0,0.,24.0
1979-07-24 05:02:55.400 ,2,0,0.,24.0,0.,24.0,0.,24.0,0.,24.0
1979-07-24 05:03:19.400 ,3,1,0.,24.0,0.,24.0,0.,24.0,0.,24.0
1979-07-24 05:03:43.400 ,3,0,0.,24.0,0.,24.0,0.,24.0,0.,24.0
1979-07-24 05:04:07.400 ,4,1,0.,24.0,0.,24.0,0.,24.0,0.,24.0
1979-07-24 05:04:31.400 ,4,0,0.,24.0,0.,24.0,0.,24.0,0.,24.0
1979-07-24 05:04:55.400 ,5,1,0.,24.0,0.,24.0,0.,24.0,0.,24.0
1979-07-24 05:05:19.400 ,5,0,0.,24.0,0.,24.0,0.,24.0,0.,24.0
1979-07-24 05:05:43.400 ,6,1,0.,24.0,0.,24.0,0.,24.0,0.,24.0
1979-07-24 05:06:07.400 ,6,0,0.,24.0,0.,24.0,0.,24.0,0.,24.0
1979-07-24 05:06:31.400 ,7,0,0.,24.0,0.,24.0,0.,24.0,0.,24.0
1979-07-24 05:06:55.400 ,7,0,0.,24.0,0.,24.0,0.,24.0,0.,24.0
1979-07-24 05:07:19.400 ,5,1,0.,24.0,0.,24.0,0.,24.0,0.,24.0
1979-07-24 05:07:43.400 ,1,1,0.,24.0,0.,24.0,0.,24.0,0.,24.0
1979-07-24 05:08:07.400 ,2,1,0.,24.0,0.,24.0,0.,24.0,0.,24.0
1979-07-24 05:08:31.400 ,6,1,0.,24.0,0.,24.0,0.,24.0,0.,24.0
1979-07-24 05:08:55.400 ,5,1,0.,24.0,0.,24.0,0.,24.0,0.,24.0
1979-07-24 05:09:19.400 ,1,1,0.,24.0,0.,24.0,0.,24.0,0.,24.0
1979-07-24 05:09:43.400 ,2,1,0.,24.0,0.,24.0,0.,24.0,0.,24.0
1979-07-24 05:10:07.400 ,6,1,0.,24.0,0.,24.0,0.,24.0,0.,24.0
1979-07-24 05:10:31.400 ,5,1,0.,24.0,0.,24.0,0.,24.0,0.,24.0
1979-07-24 05:10:55.400 ,1,1,0.,24.0,0.,24.0,0.,24.0,0.,24.0
1979-07-24 05:11:19.400 ,2,1,0.,24.0,0.,24.0,0.,24.0,0.,24.0
1979-07-24 05:11:43.400 ,6,1,0.,24.0,0.,24.0,0.,24.0,0.,24.0
1979-07-24 05:12:07.400 ,5,1,0.,24.0,0.,24.0,0.,24.0,0.,24.0
1979-07-24 05:12:31.400 ,1,1,0.,24.0,0.,24.0,0.,24.0,0.,24.0
1979-07-24 05:12:55.400 ,2,1,0.,24.0,0.,24.0,0.,24.0,0.,24.0
1979-07-24 05:13:19.400 ,6,1,0.,24.0,0.,24.0,0.,24.0,0.,24.0
1979-07-24 05:13:43.400 ,5,1,0.,24.0,0.,24.0,0.,24.0,0.,24.0
1979-07-24 05:14:07.400 ,1,1,0.,24.0,0.,24.0,0.,24.0,0.,24.0
1979-07-24 05:14:31.400 ,2,1,0.,24.0,0.,24.0,0.,24.0,0.,24.0
1979-07-24 05:14:55.400 ,6,1,1.,24.0,0.,24.0,0.,24.0,0.,24.0
1979-07-24 05:15:19.400 ,5,1,0.,24.0,0.,24.0,0.,24.0,0.,24.0
1979-07-24 05:15:43.400 ,1,1,0.,24.0,0.,24.0,0.,24.0,0.,24.0
1979-07-24 05:16:07.400 ,2,1,0.,24.0,0.,24.0,0.,24.0,0.,24.0
1979-07-24 05:16:31.400 ,6,1,0.,24.0,0.,24.0,0.,24.0,0.,24.0
1979-07-24 05:16:55.400 ,5,1,0.,24.0,0.,24.0,0.,24.0,0.,24.0
1979-07-24 05:17:19.400 ,1,1,1.,24.0,0.,24.0,0.,24.0,0.,24.0
1979-07-24 05:17:43.400 ,0,0,0.,24.0,0.,24.0,0.,24.0,0.,24.0
1979-07-24 05:18:07.400 ,0,0,0.,24.0,0.,24.0,0.,24.0,0.,24.0
1979-07-24 05:18:31.400 ,5,1,0.,24.0,0.,24.0,0.,24.0,0.,24.0
1979-07-24 05:18:55.400 ,5,0,0.,24.0,0.,24.0,0.,24.0,0.,24.0
1979-07-24 05:19:19.400 ,4,1,0.,24.0,0.,24.0,0.,24.0,0.,24.0
1979-07-24 05:19:43.400 ,4,0,0.,24.0,0.,24.0,0.,24.0,0.,24.0
1979-07-24 05:20:07.400 ,3,1,0.,24.0,0.,24.0,0.,24.0,0.,24.0
1979-07-24 05:20:31.400 ,3,0,0.,24.0,0.,24.0,0.,24.0,0.,24.0
1979-07-24 05:20:55.400 ,2,1,0.,24.0,0.,24.0,0.,24.0,0.,24.0
1979-07-24 05:21:19.400 ,2,0,0.,24.0,0.,24.0,0.,24.0,0.,24.0
1979-07-24 05:21:43.400 ,1,1,0.,24.0,0.,24.0,0.,24.0,0.,24.0
1979-07-24 05:22:07.400 ,1,0,0.,24.0,0.,24.0,0.,24.0,0.,24.0
1979-07-24 05:22:31.400 ,0,1,0.,24.0,0.,24.0,0.,24.0,0.,24.0
1979-07-24 05:22:55.400 ,0,0,0.,24.0,0.,24.0,0.,24.0,0.,24.0
1979-07-24 05:23:19.400 ,0,1,1.,24.0,0.,24.0,0.,24.0,0.,24.0
1979-07-24 05:23:43.400 ,0,0,0.,24.0,0.,24.0,0.,24.0,0.,24.0
1979-07-24 05:24:07.400 ,1,1,0.,24.0,0.,24.0,0.,24.0,0.,24.0
1979-07-24 05:24:31.400 ,1,0,0.,24.0,0.,24.0,0.,24.0,0.,24.0
1979-07-24 05:24:55.400 ,2,1,0.,24.0,0.,24.0,0.,24.0,0.,24.0
1979-07-24 05:25:19.400 ,2,0,0.,24.0,0.,24.0,0.,24.0,0.,24.0
1979-07-24 05:25:43.400 ,3,1,0.,24.0,0.,24.0,0.,24.0,0.,24.0
1979-07-24 05:26:07.400 ,3,0,0.,24.0,0.,24.0,0.,24.0,0.,24.0
1979-07-24 05:26:31.400 ,4,1,0.,24.0,0.,24.0,0.,24.0,0.,24.0
1979-07-24 05:26:55.400 ,4,0,0.,24.0,0.,24.0,0.,24.0,0.,24.0
1979-07-24 05:27:19.400 ,5,1,0.,24.0,0.,24.0,0.,24.0,0.,24.0
1979-07-24 05:27:43.400 ,5,0,1.,24.0,0.,24.0,0.,24.0,0.,24.0
1979-07-24 05:28:07.400 ,6,1,0.,24.0,0.,24.0,0.,24.0,0.,24.0
1979-07-24 05:28:31.400 ,6,0,0.,24.0,0.,24.0,0.,24.0,0.,24.0
1979-07-24 05:28:55.400 ,7,1,0.,24.0,0.,24.0,0.,24.0,0.,24.0
1979-07-24 05:29:19.400 ,7,0,0.,24.0,0.,24.0,0.,24.0,0.,24.0
1979-07-24 05:29:43.400 ,7,1,0.,24.0,0.,24.0,0.,24.0,0.,24.0
1979-07-24 05:30:07.400 ,7,0,0.,24.0,0.,24.0,0.,24.0,0.,24.0
1979-07-24 05:30:31.400 ,6,1,0.,24.0,0.,24.0,0.,24.0,0.,24.0
1979-07-24 05:30:55.400 ,6,0,0.,24.0,0.,24.0,0.,24.0,0.,24.0
1979-07-24 05:31:19.400 ,5,1,0.,24.0,0.,24.0,0.,24.0,0.,24.0
1979-07-24 05:31:43.400 ,5,0,0.,24.0,0.,24.0,0.,24.0,0.,24.0
1979-07-24 05:32:07.400 ,4,1,0.,24.0,0.,24.0,0.,24.0,0.,24.0
1979-07-24 05:32:31.400 ,4,0,0.,24.0,0.,24.0,0.,24.0,0.,24.0
1979-07-24 05:32:55.400 ,3,1,0.,24.0,0.,24.0,0.,24.0,0.,24.0
1979-07-24 05:33:19.400 ,3,0,0.,24.0,0.,24.0,0.,24.0,0.,24.0
1979-07-24 05:33:43.400 ,2,1,0.,24.0,0.,24.0,0.,24.0,0.,24.0
1979-07-24 05:34:07.400 ,2,0,0.,24.0,0.,24.0,0.,24.0,0.,24.0
1979-07-24 05:34:31.400 ,1,1,0.,24.0,0.,24.0,0.,24.0,0.,24.0
1979-07-24 05:34:55.400 ,1,0,0.,24.0,0.,24.0,0.,24.0,0.,24.0
1979-07-24 05:35:19.400 ,0,1,0.,24.0,0.,24.0,0.,24.0,0.,24.0
1979-07-24 05:35:43.400 ,0,0,0.,24.0,0.,24.0,0.,24.0,0.,24.0
1979-07-24 05:36:07.400 ,0,1,0.,24.0,0.,24.0,0.,24.0,0.,24.0
1979-07-24 05:36:31.400 ,0,0,0.,24.0,0.,24.0,0.,24.0,0.,24.0
1979-07-24 05:36:55.400 ,1,1,0.,24.0,0.,24.0,0.,24.0,0.,24.0